Location: Drocourt
(49.0571°N, 1.7669°E)
Time: 23:21:05
(UTC+00:00)

SR - Pass Details

Date: 18 April 2024
Orbit: 579 x 859 km, 66.7° (Epoch: 25 May)

Event Time Altitude Azimuth Distance (km) Brightness Sun altitude
Rises 11:49:05 0° 313° (NW) 2,966 ? 52.0°
Reaches altitude 10° 11:52:00 10° 295° (WNW) 2,004 ? 52.0°
Maximum altitude 11:55:04 18° 252° (WSW) 1,486 ? 52.0°
Drops below altitude 10° 11:58:01 10° 208° (SSW) 1,920 ? 52.0°
Sets 12:00:45 0° 189° (S) 2,794 ? 52.0°
